Regional Weather Roundup
Issued by NWS Memphis, TN

Home | Current Version | Previous Version | Text Only | Print | Product List | Glossary On
Versions: 1 2 3 4 5 6 7 8 9 10 11 12 13 14 15 16 17 18 19 20 21 22 23 24 25 26 27 28 29 30 31 32 33 34 35 36 37 38 39 40 41 42 43 44 45 46 47 48 49 50
002
ASUS44 KMEG 221910
RWRMEG
MEMPHIS CWA HOURLY WEATHER ROUNDUP
NATIONAL WEATHER SERVICE MEMPHIS TN
200 PM CDT FRI MAY 22 2015

...WEST TENNESSEE...

CITY           SKY/WX    TMP DP  RH WIND       PRES   REMARKS
MEMPHIS INTL   MOSUNNY   73  45  36 CALM      30.27F
NWS MEMPHIS      N/A     71 N/A N/A MISG        N/A
JACKSON        SUNNY     72  47  40 VRB3      30.27F
LEXINGTON      SUNNY     72  45  37 N5        30.26F
DYERSBURG      SUNNY     70  39  32 W3        30.30R
PARIS          SUNNY     70  43  37 NE7       30.28F


...EASTERN ARKANSAS...

CITY           SKY/WX    TMP DP  RH WIND       PRES   REMARKS
JONESBORO      SUNNY     67  46  47 SE6       30.28F
WEST MEMPHIS   SUNNY     70  49  47 N3        30.26F
BATESVILLE     MOSUNNY   70  46  43 NE6       30.28F
NEWPORT        MOSUNNY   67  48  50 CALM      30.29F
WALNUT RIDGE   SUNNY     66  46  48 S3        30.29F
BLYTHEVILLE    SUNNY     68  48  48 CALM      30.29F
STUTTGART      MOSUNNY   70  50  49 NE8       30.26F
PINE BLUFF     MOSUNNY   69  53  56 E10       30.25F
MONTICELLO     SUNNY     71  50  47 E7        30.23F


...NORTH MISSISSIPPI...

CITY           SKY/WX    TMP DP  RH WIND       PRES   REMARKS
TUPELO         SUNNY     72  48  42 VRB6      30.25F
OXFORD         SUNNY     70  46  43 NE5       30.26F
OLIVE BRANCH   MOSUNNY   70  46  43 NE7       30.27F
TUNICA         SUNNY     68  50  52 E8        30.27F
CLARKSDALE     SUNNY     68  54  60 CALM      30.26F
CORINTH        SUNNY     70  48  46 VRB6      30.26F
GREENWOOD      SUNNY     74  50  42 E8        30.22F
COLUMBUS       SUNNY     74  51  44 N8        30.23F
STARKVILLE     FAIR      70  50  49 NE7       30.24R
GOLDEN TRIANGL SUNNY     70  50  49 N7        30.23F


...SOUTHEAST MISSOURI...

CITY           SKY/WX    TMP DP  RH WIND       PRES   REMARKS
WEST PLAINS    PTSUNNY   64  44  48 E3        30.30F
POPLAR BLUFF   MOSUNNY   68  45  43 SW5       30.29S
CAPE GIRARDEAU MOSUNNY   69  50  50 MISG      30.28S


...NORTHWEST ALABAMA...

CITY           SKY/WX    TMP DP  RH WIND       PRES   REMARKS
MUSCLE SHOALS  SUNNY     71  46  40 E6        30.27S


...MIDDLE TENNESSEE...

CITY           SKY/WX    TMP DP  RH WIND       PRES   REMARKS
NASHVILLE      MOSUNNY   72  43  35 NE3       30.28S
CLARKSVILLE    SUNNY     71  43  36 VRB3      30.27F
COLUMBIA       SUNNY     72  43  35 NE8       30.26S


...WESTERN KENTUCKY...

CITY           SKY/WX    TMP DP  RH WIND       PRES   REMARKS
PADUCAH        SUNNY     74  46  36 W6        30.27S
FORT CAMPBELL  SUNNY     69  48  46 VRB3      30.27F HAZE


...CENTRAL ARKANSAS...

CITY           SKY/WX    TMP DP  RH WIND       PRES   REMARKS
LITTLE ROCK    MOSUNNY   70  50  49 VRB6      30.25F


SKY/WX REPORTED AS FAIR MEANS FEW OR NO CLOUDS BELOW
12 THOUSAND FEET.




USA.gov is the U.S. government's official web portal to all federal, state and local government web resources and services.